N4DRV Weather Reports


Display with metric or nautical units.
time (UTC)temp
F
wind
direction
speed
MPH
gust
MPH
rain 1hr
in
rain 24hr
in
rain mn
in
humidity
%
barometer
mb
20260906115505 71 34 0.0 0.0 0.00 0.38 0.00 100 1016.2
20260906114501 71 34 0.0 0.0 0.00 0.38 0.00 100 1016.1
20260906113505 71 34 0.0 0.0 0.00 0.38 0.00 100 1016.1
20260906112502 71 34 0.0 0.0 0.00 0.38 0.00 100 1016.1
20260906111500 71 34 0.0 0.0 0.00 0.38 0.00 100 1016.2
20260906110544 71 34 0.0 0.0 0.00 0.38 0.00 100 1016.2
20260906105456 71 34 0.0 0.0 0.00 0.38 0.00 100 1016.1
20260906104453 71 34 0.0 0.0 0.00 0.38 0.00 100 1016.2
20260906103452 71 34 0.0 0.0 0.00 0.38 0.00 100 1016.2
20260906102453 71 34 0.0 0.0 0.00 0.38 0.00 100 1015.9
20260906101450 71 34 0.0 0.0 0.00 0.38 0.00 100 1016.1
20260906100530 71 34 0.0 0.0 0.00 0.38 0.00 100 1015.9
20260906095507 71 34 0.0 0.0 0.00 0.38 0.00 100 1015.9
20260906094505 71 34 0.0 0.0 0.00 0.38 0.00 100 1015.9
20260906093505 71 34 0.0 0.0 0.00 0.38 0.00 100 1015.9
20260906092506 71 34 0.0 0.0 0.00 0.38 0.00 100 1016.0
20260906091503 71 34 0.0 0.0 0.00 0.38 0.00 100 1015.8
20260906090523 71 34 0.0 0.0 0.00 0.38 0.00 100 1015.9
20260906085456 70 34 0.0 0.0 0.00 0.38 0.00 100 1015.9
20260906084458 70 34 0.0 0.0 0.00 0.38 0.00 100 1015.9
20260906083458 70 34 0.0 0.0 0.00 0.38 0.00 100 1015.9
20260906082455 70 34 0.0 0.0 0.00 0.38 0.00 100 1015.9
20260906081457 70 34 0.0 0.0 0.00 0.38 0.00 100 1015.8
20260906080537 70 34 0.0 0.0 0.00 0.38 0.00 100 1015.8
20260906075449 70 34 0.0 0.0 0.00 0.38 0.00 100 1015.7
20260906074451 70 34 0.0 0.0 0.00 0.38 0.00 100 1015.8
20260906073451 70 34 0.0 0.0 0.00 0.38 0.00 100 1015.8
20260906072448 71 34 0.0 0.0 0.00 0.38 0.00 100 1015.7
20260906071505 71 34 0.0 0.0 0.00 0.38 0.00 100 1015.8
20260906070529 71 34 0.0 0.0 0.00 0.38 0.00 100 1015.9
20260906065501 71 34 0.0 0.0 0.00 0.38 0.00 100 1015.7
20260906064459 71 34 0.0 0.0 0.00 0.38 0.00 100 1015.9
20260906063523 71 34 0.0 0.0 0.00 0.38 0.00 100 1015.9
20260906062459 71 34 0.0 0.0 0.00 0.38 0.00 100 1015.9
20260906061457 71 34 0.0 0.0 0.00 0.38 0.00 100 1016.1
20260906060516 71 34 0.0 0.0 0.00 0.38 0.00 100 1016.2
20260906055515 71 34 0.0 0.0 0.00 0.38 0.00 100 1016.5
20260906054511 71 34 0.0 0.0 0.00 0.38 0.00 100 1016.5
20260906053451 71 34 0.0 0.0 0.00 0.38 0.00 100 1016.7
20260906052452 72 34 0.0 0.0 0.00 0.38 0.00 100 1016.7
20260906051449 72 34 0.0 0.0 0.00 0.38 0.00 100 1016.8
20260906050528 72 34 0.0 0.0 0.00 0.38 0.00 100 1016.8
20260906045501 72 34 0.0 0.0 0.00 0.38 0.00 100 1016.8
20260906044524 72 34 0.0 0.0 0.00 0.38 0.00 99 1016.7
20260906043523 72 34 0.0 0.0 0.00 0.38 0.00 99 1016.6
20260906042459 72 34 0.0 0.0 0.00 0.38 0.00 99 1016.6
20260906041458 72 34 0.0 0.0 0.00 0.38 0.00 100 1016.6
20260906040541 72 34 0.0 0.0 0.00 0.38 0.00 100 1016.7
20260906035453 72 34 0.0 0.0 0.00 0.38 0.38 100 1016.9
20260906034451 72 34 0.0 0.0 0.00 0.38 0.38 100 1016.7
20260906033515 72 34 0.0 0.0 0.00 0.38 0.38 99 1016.8
20260906032452 72 34 0.0 0.0 0.00 0.38 0.38 99 1016.9
20260906031511 72 34 0.0 0.0 0.00 0.38 0.38 99 1017.0
20260906030530 72 34 0.0 0.0 0.00 0.38 0.38 99 1017.2
20260906025508 72 34 0.0 0.0 0.00 0.38 0.38 99 1017.5
20260906024505 72 34 0.0 0.0 0.00 0.38 0.38 99 1017.4
20260906023505 72 32 0.0 0.0 0.00 0.38 0.38 99 1017.3
20260906022506 72 32 0.0 0.0 0.00 0.38 0.38 99 1017.0
20260906021505 73 32 0.0 0.0 0.00 0.38 0.38 99 1017.1
20260906020543 73 32 0.0 0.0 0.00 0.38 0.38 99 1017.1
20260906015456 73 32 0.0 0.0 0.00 0.38 0.38 99 1016.9
20260906014458 73 32 0.0 0.0 0.00 0.38 0.38 99 1016.9
20260906013518 73 32 0.0 0.0 0.00 0.38 0.38 99 1017.3
20260906012515 73 32 0.0 0.0 0.00 0.38 0.38 99 1017.2
20260906011457 73 73 0.0 3.0 0.00 0.38 0.38 99 1016.9
20260906010537 73 204 2.0 4.0 0.00 0.38 0.38 99 1016.8
20260906005510 73 161 0.0 0.0 0.00 0.38 0.38 99 1015.6
20260906004508 73 161 0.0 0.0 0.00 0.38 0.38 99 1015.6
20260906003511 73 161 0.0 0.0 0.00 0.38 0.38 99 1015.6
20260906002509 73 161 0.0 0.0 0.00 0.38 0.38 99 1015.4
20260906001527 73 161 0.0 0.0 0.00 0.38 0.38 99 1015.4
20260906000530 73 161 0.0 0.0 0.00 0.38 0.38 98 1015.0
20260905235523 73 161 0.0 0.0 0.00 0.38 0.38 98 1014.5
20260905234500 74 161 0.0 0.0 0.00 0.38 0.38 98 1014.5
20260905233519 74 161 0.0 0.0 0.00 0.38 0.38 98 1014.5
20260905232500 74 161 0.0 0.0 0.00 0.38 0.38 98 1014.7
20260905231519 74 161 0.0 0.0 0.00 0.38 0.38 98 1015.1
20260905230538 74 161 0.0 0.0 0.14 0.38 0.38 97 1015.2
20260905225516 74 168 0.0 0.0 0.30 0.38 0.38 97 1015.3
20260905224513 74 168 0.0 6.0 0.31 0.38 0.38 96 1015.8
20260905223513 74 221 2.0 11.0 0.38 0.38 0.38 95 1015.9
20260905222515 74 122 1.0 3.0 0.38 0.38 0.38 96 1016.2
20260905221513 75 114 1.0 6.0 0.38 0.38 0.38 93 1015.8
20260905220533 78 73 9.0 23.0 0.24 0.24 0.24 88 1017.7
20260905215526 81 294 6.0 9.0 0.08 0.08 0.08 83 1014.6
20260905214507 87 280 2.0 8.0 0.07 0.07 0.07 74 1014.6
20260905213507 94 346 2.0 4.0 0.00 0.00 0.00 57 1014.3
20260905212504 95 94 2.0 3.0 0.00 0.00 0.00 59 1014.0
20260905211507 96 94 1.0 2.0 0.00 0.00 0.00 54 1013.9
20260905210546 97 94 1.0 3.0 0.00 0.00 0.00 52 1014.0
20260905205519 96 95 0.0 3.0 0.00 0.00 0.00 55 1014.2
20260905204517 96 89 1.0 5.0 0.00 0.00 0.00 54 1014.2
20260905203520 96 85 1.0 6.0 0.00 0.00 0.00 54 1014.4
20260905202518 96 108 0.0 4.0 0.00 0.00 0.00 55 1014.5
20260905201516 96 117 1.0 6.0 0.00 0.00 0.00 54 1014.9
20260905200540 96 138 1.0 5.0 0.00 0.00 0.00 54 1014.9
20260905195513 96 4 1.0 4.0 0.00 0.00 0.00 54 1015.0
20260905194511 95 107 1.0 3.0 0.00 0.00 0.00 55 1015.1
20260905193514 95 178 0.0 4.0 0.00 0.00 0.00 55 1015.1
20260905192533 95 109 1.0 4.0 0.00 0.00 0.00 58 1015.3
20260905191530 95 326 1.0 3.0 0.00 0.00 0.00 56 1015.4
20260905190548 95 335 0.0 2.0 0.00 0.00 0.00 56 1015.5
20260905185526 95 322 0.0 1.0 0.00 0.00 0.00 56 1015.7
20260905184524 95 322 0.0 3.0 0.00 0.00 0.00 55 1015.8
20260905183524 95 97 1.0 2.0 0.00 0.00 0.00 56 1015.8
20260905182542 94 287 0.0 3.0 0.00 0.00 0.00 56 1016.1
20260905181523 95 289 2.0 3.0 0.00 0.00 0.00 57 1016.1
20260905180543 96 297 2.0 4.0 0.00 0.00 0.00 57 1016.2
20260905175516 96 238 0.0 5.0 0.00 0.00 0.00 56 1016.2
20260905174518 96 195 0.0 4.0 0.00 0.00 0.00 57 1016.5
20260905173517 96 52 1.0 5.0 0.00 0.00 0.00 57 1016.6
20260905172514 97 175 2.0 6.0 0.00 0.00 0.00 60 1016.7
20260905171537 96 56 1.0 4.0 0.00 0.00 0.00 57 1016.8
20260905170557 96 159 1.0 3.0 0.00 0.00 0.00 63 1017.0
20260905165529 95 232 1.0 3.0 0.00 0.00 0.00 58 1017.1
20260905164527 95 85 1.0 3.0 0.00 0.00 0.00 60 1017.1
20260905163552 94 278 1.0 2.0 0.00 0.00 0.00 61 1017.3
20260905162529 95 341 1.0 4.0 0.00 0.00 0.00 61 1017.5
20260905161526 94 283 1.0 3.0 0.00 0.00 0.00 64 1017.7
20260905160550 93 314 2.0 4.0 0.00 0.00 0.00 62 1017.8
20260905155523 92 265 2.0 3.0 0.00 0.00 0.00 63 1018.0
20260905154521 92 218 2.0 2.0 0.00 0.00 0.00 64 1018.2
20260905153520 91 103 2.0 4.0 0.00 0.00 0.00 66 1018.2
20260905152522 91 106 1.0 4.0 0.00 0.00 0.00 68 1018.2
20260905151521 90 272 2.0 3.0 0.00 0.00 0.00 69 1018.2
20260905150540 89 237 2.0 3.0 0.00 0.00 0.00 70 1018.1
20260905145538 89 236 2.0 3.0 0.00 0.00 0.00 72 1018.2
20260905144536 88 149 0.0 0.0 0.00 0.00 0.00 72 1018.2
20260905143554 87 149 0.0 0.0 0.00 0.00 0.00 74 1018.3
20260905142531 86 146 0.0 0.0 0.00 0.00 0.00 78 1018.2
20260905141533 84 146 0.0 0.0 0.00 0.00 0.00 79 1018.4
20260905140553 83 145 0.0 0.0 0.00 0.00 0.00 83 1018.5
20260905135526 81 145 0.0 0.0 0.00 0.00 0.00 86 1018.6
20260905134528 79 145 0.0 0.0 0.00 0.00 0.00 89 1018.6
20260905133527 78 145 0.0 1.0 0.00 0.00 0.00 91 1018.6
20260905132524 77 145 0.0 0.0 0.00 0.00 0.00 94 1018.7
20260905131522 76 145 0.0 0.0 0.00 0.00 0.00 97 1018.8
20260905130545 75 145 0.0 0.0 0.00 0.00 0.00 98 1018.9
20260905125519 74 145 0.0 0.0 0.00 0.00 0.00 99 1018.9
20260905124537 74 145 0.0 0.0 0.00 0.00 0.00 99 1018.7
20260905123540 73 145 0.0 0.0 0.00 0.00 0.00 99 1018.7
20260905122517 73 145 0.0 0.0 0.00 0.00 0.00 99 1018.7
20260905121514 72 145 0.0 0.0 0.00 0.00 0.00 99 1018.6
20260905120555 72 145 0.0 0.0 0.00 0.00 0.00 99 1018.7